EW4363 Olesa De Montserrat ES current weather conditions

sailwx.info

Wind from 134

Air temperature 18.3° C
Dewpoint 4.1° C

Last reported at 2020-Apr-07 17:08 UTC.
Time now 2020-Apr-07 17:36 UTC

Location: N 41°32' E 001°54'.
View on Google Maps.

See reports from other nearby stations

  
Tides and Currents Weather Stations Pressure Air Temp Water Temp Dewpoint Dewpoint Depression Visibility Wind Speed Wind Dir Waves Ship Positions
date/time (UTC)wind fromknots sea level pressurealtimeterstation pressurevisibilityair tempwater tempwave heightnotes
2020-Apr-07 17:08 134 18.3
2020-Apr-07 17:03 134 18.3
2020-Apr-07 16:58 132 18.3
2020-Apr-07 16:53 167 18.3
2020-Apr-07 16:48 209 18.3
2020-Apr-07 16:43 230 18.3
2020-Apr-07 16:38 191 18.3
2020-Apr-07 16:33 197 18.3
2020-Apr-07 16:28 227 18.9
2020-Apr-07 16:23 199 18.9
2020-Apr-07 16:18 223 18.9
2020-Apr-07 16:13 181 0 gusting 4 18.9
2020-Apr-07 16:08 244 18.9
2020-Apr-07 16:03 246 0 gusting 2 18.9
2020-Apr-07 15:58 252 0 gusting 2 18.9
2020-Apr-07 15:03 213 18.9
2020-Apr-07 14:58 144 0 gusting 2 18.9
2020-Apr-07 14:53 221 2 gusting 6 18.9
2020-Apr-07 14:48 191 0 gusting 1 19.4
2020-Apr-07 14:43 159 0 gusting 2 19.4
2020-Apr-07 14:38 212 0 gusting 2 19.4
2020-Apr-07 14:33 187 0 gusting 2 19.4
2020-Apr-07 14:28 183 1 gusting 2 19.4
2020-Apr-07 14:23 176 1 gusting 2 20.0
2020-Apr-07 14:18 148 0 gusting 2 20.0
2020-Apr-07 14:13 201 1 gusting 2 19.4
2020-Apr-07 14:08 167 0 gusting 4 20.0
2020-Apr-07 14:03 206 0 gusting 2 20.0
2020-Apr-07 13:58 196 0 gusting 4 20.0
2020-Apr-07 13:53 188 1 gusting 4 20.0
2020-Apr-07 13:48 228 0 gusting 2 20.0
2020-Apr-07 13:43 184 0 gusting 2 20.0
2020-Apr-07 13:38 170 1 gusting 4 20.0
2020-Apr-07 13:33 184 2 gusting 6 20.0
2020-Apr-07 13:28 181 1 gusting 4 20.0
2020-Apr-07 13:23 210 0 gusting 5 20.0
2020-Apr-07 13:18 182 0 gusting 5 19.4
2020-Apr-07 13:13 191 1 gusting 5 19.4
2020-Apr-07 13:08 203 0 gusting 5 19.4
2020-Apr-07 13:03 162 1 gusting 2 19.4
2020-Apr-07 12:58 093 1 gusting 4 18.9
2020-Apr-07 12:53 174 0 gusting 2 18.9
2020-Apr-07 12:48 200 0 gusting 2 18.9
2020-Apr-07 12:43 194 1 gusting 5 18.9
2020-Apr-07 12:38 195 0 gusting 4 18.9
2020-Apr-07 12:33 167 1 gusting 4 18.9
2020-Apr-07 12:28 185 1 gusting 4 18.9
2020-Apr-07 12:23 193 1 gusting 4 18.9
2020-Apr-07 12:18 142 1 gusting 2 19.4
2020-Apr-07 12:13 200 1 gusting 4 19.4
2020-Apr-07 12:08 228 0 gusting 4 18.9
2020-Apr-07 12:03 182 0 gusting 2 18.9
2020-Apr-07 11:58 053 0 gusting 2 18.9
2020-Apr-07 11:53 128 18.9
2020-Apr-07 11:48 198 0 gusting 2 18.9
2020-Apr-07 11:43 200 0 gusting 2 18.9
2020-Apr-07 11:38 196 0 gusting 2 18.9
2020-Apr-07 11:33 181 0 gusting 2 18.9
2020-Apr-07 11:28 266 0 gusting 1 18.9
2020-Apr-07 11:23 176 0 gusting 4 18.9
2020-Apr-07 11:18 198 19.4
2020-Apr-07 11:13 158 0 gusting 2 19.4
2020-Apr-07 11:08 045 0 gusting 2 18.9
2020-Apr-07 11:03 020 0 gusting 1 18.3
2020-Apr-07 10:58 032 18.3
2020-Apr-07 10:53 236 1 gusting 2 18.3
2020-Apr-07 10:48 153 0 gusting 2 18.3
2020-Apr-07 10:43 251 0 gusting 2 18.3
2020-Apr-07 10:38 219 18.3
2020-Apr-07 10:33 224 18.3
2020-Apr-07 10:28 225 0 gusting 1 17.8
2020-Apr-07 10:23 184 17.8
2020-Apr-07 10:18 199 17.8
2020-Apr-07 10:13 212 17.8
2020-Apr-07 10:08 224 17.2
2020-Apr-07 10:03 224 0 gusting 1 17.2
2020-Apr-07 09:58 198 17.2
2020-Apr-07 09:53 198 17.2
2020-Apr-07 09:48 198 16.7
2020-Apr-07 09:43 203 0 gusting 1 16.7
2020-Apr-07 09:38 230 16.7
2020-Apr-07 09:33 315 16.1
2020-Apr-07 09:28 357 15.6
2020-Apr-07 09:23 028 15.6
2020-Apr-07 09:18 028 15.0
2020-Apr-07 09:13 029 15.0
2020-Apr-07 09:08 029 0 gusting 0 15.0
2020-Apr-07 09:03 022 15.0
2020-Apr-07 08:58 028 0 gusting 1 14.4
2020-Apr-07 08:53 024 0 gusting 2 14.4
2020-Apr-07 08:48 328 0 gusting 1 14.4
2020-Apr-07 08:43 279 13.9
2020-Apr-07 08:38 306 0 gusting 2 13.9
2020-Apr-07 08:33 339 0 gusting 1 13.3
2020-Apr-07 08:28 340 13.3
2020-Apr-07 08:23 004 0 gusting 2 12.8
2020-Apr-07 08:18 318 12.8
2020-Apr-07 08:13 320 12.8
2020-Apr-07 08:08 014 0 gusting 1 12.2
2020-Apr-07 08:03 352 0 gusting 2 12.2
2020-Apr-07 07:58 359 0 gusting 1 11.7
2020-Apr-07 07:53 346 0 gusting 2 11.7
2020-Apr-07 07:48 008 1 gusting 4 11.7
2020-Apr-07 07:43 329 1 gusting 2 11.7
2020-Apr-07 07:38 349 1 gusting 4 11.7
2020-Apr-07 07:33 339 0 gusting 1 11.7
2020-Apr-07 07:28 329 1 gusting 2 11.1
2020-Apr-07 07:23 341 0 gusting 2 11.1
2020-Apr-07 07:18 315 0 gusting 1 11.1
2020-Apr-07 07:13 044 0 gusting 1 11.1
2020-Apr-07 07:08 347 0 gusting 2 10.6
2020-Apr-07 07:03 329 0 gusting 2 10.6
2020-Apr-07 06:58 356 0 gusting 4 10.6
2020-Apr-07 06:53 007 0 gusting 2 10.6
2020-Apr-07 06:48 343 0 gusting 4 10.6
2020-Apr-07 06:43 009 1 gusting 2 10.6
2020-Apr-07 06:38 005 0 gusting 2 10.6
2020-Apr-07 06:33 358 1 gusting 2 10.6
2020-Apr-07 06:28 343 0 gusting 2 10.6
2020-Apr-07 06:23 346 0 gusting 2 10.0
2020-Apr-07 06:18 334 10.0
2020-Apr-07 06:13 321 0 gusting 2 10.0
2020-Apr-07 06:08 348 1 gusting 2 10.0
2020-Apr-07 06:03 355 1 gusting 4 10.0
2020-Apr-07 05:58 349 1 gusting 4 10.0
2020-Apr-07 05:53 338 1 gusting 2 10.0
2020-Apr-07 05:48 341 0 gusting 4 10.0
2020-Apr-07 05:43 022 1 gusting 2 10.0
2020-Apr-07 05:38 357 0 gusting 2 10.0
2020-Apr-07 05:33 354 1 gusting 4 10.0
2020-Apr-07 05:28 355 0 gusting 2 10.0
2020-Apr-07 05:23 350 1 gusting 2 10.0
2020-Apr-07 05:18 345 0 gusting 2 10.0
2020-Apr-07 05:13 010 1 gusting 2 10.0
2020-Apr-07 05:08 336 0 gusting 2 10.0
2020-Apr-07 05:03 349 0 gusting 2 10.0
2020-Apr-07 04:58 346 0 gusting 2 10.0
2020-Apr-07 04:53 351 1 gusting 2 10.0
2020-Apr-07 04:48 325 10.0
2020-Apr-07 04:43 357 10.0
2020-Apr-07 04:38 346 1 gusting 2 10.0
2020-Apr-07 04:33 333 1 gusting 4 10.0
2020-Apr-07 04:28 357 1 gusting 2 10.0
2020-Apr-07 04:23 343 0 gusting 2 10.0
2020-Apr-07 04:18 336 1 gusting 2 10.0
2020-Apr-07 04:13 321 1 gusting 2 10.0
2020-Apr-07 04:08 340 0 gusting 2 10.0
2020-Apr-07 04:03 005 1 gusting 4 10.0
2020-Apr-07 03:58 336 0 gusting 4 10.0
2020-Apr-07 03:53 326 0 gusting 2 10.0
2020-Apr-07 03:48 347 10.0
2020-Apr-07 03:43 347 10.0
2020-Apr-07 03:38 347 10.0
2020-Apr-07 03:33 024 10.0
2020-Apr-07 03:28 330 0 gusting 2 10.0
2020-Apr-07 03:23 347 0 gusting 1 10.0
2020-Apr-07 03:18 352 10.0
2020-Apr-07 03:13 002 10.0
2020-Apr-07 03:08 016 0 gusting 1 10.0
2020-Apr-07 03:03 312 0 gusting 4 10.0
2020-Apr-07 02:58 348 0 gusting 2 10.0
2020-Apr-07 02:53 321 0 gusting 2 10.0
2020-Apr-07 02:48 329 0 gusting 2 10.0
2020-Apr-07 02:43 349 0 gusting 2 10.0
2020-Apr-07 02:38 004 0 gusting 2 10.0
2020-Apr-07 02:33 334 0 gusting 2 10.0
2020-Apr-07 02:23 335 0 gusting 2 10.6
2020-Apr-07 02:18 353 0 gusting 2 10.6
2020-Apr-07 02:13 355 0 gusting 2 10.6
2020-Apr-07 02:08 359 1 gusting 2 10.6
2020-Apr-07 02:03 004 0 gusting 1 10.6
2020-Apr-07 01:58 328 0 gusting 2 10.6
2020-Apr-07 01:53 326 0 gusting 2 10.6
2020-Apr-07 01:48 333 10.6
2020-Apr-07 01:43 332 10.0
2020-Apr-07 01:38 181 10.0
2020-Apr-07 01:33 181 10.0
2020-Apr-07 01:28 181 10.0
2020-Apr-07 01:23 181 10.0
2020-Apr-07 01:18 181 10.6
2020-Apr-07 01:13 181 10.6
2020-Apr-07 01:08 181 10.6
2020-Apr-07 01:03 181 10.6
2020-Apr-07 00:58 181 10.6
2020-Apr-07 00:53 181 10.6
2020-Apr-07 00:48 181 10.6
2020-Apr-07 00:43 181 10.6
2020-Apr-07 00:38 181 10.6
2020-Apr-07 00:33 181 10.6
2020-Apr-07 00:28 181 10.6
2020-Apr-07 00:23 177 10.6
2020-Apr-07 00:18 177 10.6
2020-Apr-07 00:13 184 10.6
2020-Apr-07 00:08 184 10.0
2020-Apr-07 00:03 184 10.0
2020-Apr-06 23:58 184 10.0
2020-Apr-06 23:53 184 10.0
2020-Apr-06 23:48 184 10.0
2020-Apr-06 23:43 189 10.0
2020-Apr-06 23:38 188 10.6
2020-Apr-06 23:33 185 10.6
2020-Apr-06 23:28 217 10.6
2020-Apr-06 23:23 217 10.6
2020-Apr-06 23:18 217 10.6
2020-Apr-06 23:13 217 10.6
2020-Apr-06 23:08 217 10.6
2020-Apr-06 23:03 218 11.1
2020-Apr-06 22:58 218 11.1
2020-Apr-06 22:53 217 10.6
2020-Apr-06 22:48 217 10.6
2020-Apr-06 22:43 217 10.6
2020-Apr-06 22:38 217 10.6
2020-Apr-06 22:33 217 11.1
2020-Apr-06 22:28 223 11.1
2020-Apr-06 22:23 223 11.1
2020-Apr-06 22:18 223 11.1
2020-Apr-06 22:13 223 11.1
2020-Apr-06 22:08 223 11.1
2020-Apr-06 22:03 180 11.1
2020-Apr-06 21:58 180 11.7
2020-Apr-06 21:53 180 11.7
2020-Apr-06 21:48 180 11.7
2020-Apr-06 21:43 180 11.7
2020-Apr-06 21:38 180 11.7
2020-Apr-06 21:33 180 12.2
2020-Apr-06 21:28 180 12.2
2020-Apr-06 21:23 180 12.2
2020-Apr-06 21:18 180 12.2
2020-Apr-06 21:13 180 12.2
2020-Apr-06 21:08 180 12.8
2020-Apr-06 21:03 180 12.8
2020-Apr-06 20:58 180 12.8
2020-Apr-06 20:53 180 12.8
2020-Apr-06 20:48 180 12.8
2020-Apr-06 20:43 200 12.8
2020-Apr-06 20:38 200 12.8
2020-Apr-06 20:33 200 13.3
2020-Apr-06 20:28 200 13.3
2020-Apr-06 20:23 200 13.3
2020-Apr-06 20:13 200 13.3
2020-Apr-06 20:08 200 13.9
2020-Apr-06 20:03 200 13.9
2020-Apr-06 19:58 200 13.9
2020-Apr-06 19:53 200 14.4
2020-Apr-06 19:48 200 14.4
2020-Apr-06 19:43 200 14.4
2020-Apr-06 19:38 200 14.4
2020-Apr-06 19:33 200 14.4
2020-Apr-06 19:28 200 14.4
2020-Apr-06 19:23 200 14.4
2020-Apr-06 19:18 200 15.0
2020-Apr-06 19:13 200 15.0
2020-Apr-06 19:08 200 15.0
2020-Apr-06 19:03 200 15.0
2020-Apr-06 18:58 200 15.6
2020-Apr-06 18:53 200 15.6
2020-Apr-06 18:48 200 15.6
2020-Apr-06 18:43 198 15.6
2020-Apr-06 18:38 196 15.6
2020-Apr-06 18:33 196 15.6
2020-Apr-06 18:28 196 15.6
2020-Apr-06 18:23 202 16.1
2020-Apr-06 18:18 195 16.1
2020-Apr-06 18:13 183 0 gusting 1 16.1
2020-Apr-06 18:08 140 16.1
2020-Apr-06 18:03 148 16.1
2020-Apr-06 17:58 154 0 gusting 1 16.7
2020-Apr-06 17:53 169 0 gusting 2 16.7
2020-Apr-06 17:48 171 16.7
2020-Apr-06 17:43 188 16.7
2020-Apr-06 17:38 141 0 gusting 2 16.7
2020-Apr-06 17:33 191 1 gusting 4 17.2
2020-Apr-06 17:28 221 0 gusting 2 17.2
2020-Apr-06 17:23 177 1 gusting 4 17.2
2020-Apr-06 17:18 162 2 gusting 5 17.2
2020-Apr-06 17:13 167 0 gusting 2 17.2
2020-Apr-06 17:08 224 1 gusting 10 17.8
2020-Apr-06 17:03 160 0 gusting 6 17.8
2020-Apr-06 16:58 159 0 gusting 2 18.3
2020-Apr-06 16:53 133 1 gusting 5 18.3
2020-Apr-06 16:48 209 1 gusting 6 18.9
2020-Apr-06 16:43 185 3 gusting 8 19.4
2020-Apr-06 16:38 215 2 gusting 8 19.4
2020-Apr-06 16:33 202 2 gusting 4 20.0
2020-Apr-06 16:28 147 0 gusting 2 20.0
2020-Apr-06 16:23 238 1 gusting 6 20.0
2020-Apr-06 16:18 168 0 gusting 5 20.6
2020-Apr-06 16:13 177 0 gusting 5 20.6
2020-Apr-06 16:08 194 1 gusting 2 20.6
2020-Apr-06 16:03 193 0 gusting 5 21.1
2020-Apr-06 15:58 174 1 gusting 5 21.1
2020-Apr-06 15:53 246 1 gusting 5 21.1
2020-Apr-06 15:48 174 0 gusting 4 21.1
2020-Apr-06 15:43 183 1 gusting 4 21.1
2020-Apr-06 15:38 178 1 gusting 4 21.1
2020-Apr-06 15:33 171 1 gusting 2 21.1
2020-Apr-06 15:28 190 2 gusting 5 21.1
2020-Apr-06 15:23 228 0 gusting 5 20.6
2020-Apr-06 15:18 164 2 gusting 6 20.6
2020-Apr-06 15:13 228 1 gusting 7 20.6
2020-Apr-06 15:08 194 2 gusting 7 21.1
2020-Apr-06 15:03 002 0 gusting 2 21.1
2020-Apr-06 14:58 260 0 gusting 5 20.6
2020-Apr-06 14:53 258 0 gusting 6 20.6
2020-Apr-06 14:48 215 3 gusting 6 21.1
2020-Apr-06 14:43 204 2 gusting 6 21.1
2020-Apr-06 14:38 211 1 gusting 6 21.1
2020-Apr-06 14:33 185 1 gusting 5 21.1
2020-Apr-06 14:28 160 2 gusting 10 21.1
2020-Apr-06 14:23 242 1 gusting 5 21.1
2020-Apr-06 14:18 206 2 gusting 6 21.1
2020-Apr-06 14:13 185 4 gusting 6 21.1
2020-Apr-06 14:08 196 1 gusting 6 21.1
2020-Apr-06 14:03 160 2 gusting 6 21.1
2020-Apr-06 13:58 172 1 gusting 5 20.6
2020-Apr-06 13:53 192 0 gusting 2 21.1
2020-Apr-06 13:48 160 2 gusting 7 21.1
2020-Apr-06 13:43 168 1 gusting 6 21.1
2020-Apr-06 13:38 188 2 gusting 6 21.1
2020-Apr-06 13:33 182 1 gusting 6 21.1
2020-Apr-06 13:28 245 2 gusting 4 21.1
2020-Apr-06 13:18 193 2 gusting 6 21.1
2020-Apr-06 13:13 193 0 gusting 6 21.1
2020-Apr-06 13:08 198 1 gusting 5 20.6
2020-Apr-06 13:03 201 2 gusting 6 20.6
2020-Apr-06 12:58 201 2 gusting 6 21.1
2020-Apr-06 12:53 197 0 gusting 6 20.6
2020-Apr-06 12:48 186 3 gusting 8 20.6
2020-Apr-06 12:43 278 20.6
2020-Apr-06 12:38 185 3 gusting 6 20.6
2020-Apr-06 12:33 181 1 gusting 4 20.6
2020-Apr-06 12:28 172 2 gusting 6 20.6
2020-Apr-06 12:23 177 1 gusting 5 20.6
2020-Apr-06 12:18 142 0 gusting 4 20.6
2020-Apr-06 12:13 108 0 gusting 5 20.0
2020-Apr-06 12:08 181 0 gusting 2 20.0
2020-Apr-06 12:03 206 1 gusting 6 20.6
2020-Apr-06 11:58 160 1 gusting 5 20.6
2020-Apr-06 11:53 178 2 gusting 6 20.6
2020-Apr-06 11:48 154 0 gusting 2 20.0
2020-Apr-06 11:43 173 0 gusting 4 19.4
2020-Apr-06 11:38 052 19.4
2020-Apr-06 11:33 115 0 gusting 4 19.4
2020-Apr-06 11:28 130 0 gusting 6 19.4
2020-Apr-06 11:23 177 2 gusting 6 20.0
2020-Apr-06 11:18 126 0 gusting 2 19.4
2020-Apr-06 11:13 177 0 gusting 2 19.4
2020-Apr-06 11:08 199 0 gusting 2 19.4
2020-Apr-06 11:03 164 0 gusting 4 19.4
2020-Apr-06 10:58 175 19.4
2020-Apr-06 10:53 308 18.9
2020-Apr-06 10:48 262 18.9
2020-Apr-06 10:43 187 0 gusting 2 18.9
2020-Apr-06 10:38 151 0 gusting 4 18.9
2020-Apr-06 10:33 230 0 gusting 2 18.9
2020-Apr-06 10:28 198 0 gusting 2 18.9
2020-Apr-06 10:23 180 0 gusting 2 18.9
2020-Apr-06 10:18 167 0 gusting 4 18.9
2020-Apr-06 10:13 188 18.3
2020-Apr-06 10:08 031 18.3
2020-Apr-06 10:03 163 1 gusting 2 18.3
2020-Apr-06 09:58 206 0 gusting 2 17.8
2020-Apr-06 09:53 206 0 gusting 2 17.8
2020-Apr-06 09:48 199 0 gusting 1 17.2
2020-Apr-06 09:43 181 0 gusting 2 17.2
2020-Apr-06 09:38 036 17.2
2020-Apr-06 09:33 137 17.2
2020-Apr-06 09:28 021 17.2
2020-Apr-06 09:23 192 0 gusting 1 16.7
2020-Apr-06 09:18 084 16.1
2020-Apr-06 09:13 188 16.1
2020-Apr-06 09:08 188 0 gusting 1 15.6
2020-Apr-06 09:03 192 15.6
2020-Apr-06 08:58 173 0 gusting 1 15.6
2020-Apr-06 08:53 212 15.0
2020-Apr-06 08:48 209 14.4
2020-Apr-06 08:43 272 13.9
2020-Apr-06 08:38 329 0 gusting 2 13.9
2020-Apr-06 08:33 003 0 gusting 2 13.9
2020-Apr-06 08:28 035 13.3
2020-Apr-06 08:23 343 13.3
2020-Apr-06 08:18 081 13.3
2020-Apr-06 08:13 200 13.9
2020-Apr-06 08:08 200 13.3
2020-Apr-06 08:03 200 12.8
2020-Apr-06 07:58 044 12.2
2020-Apr-06 07:53 12.2
2020-Apr-06 07:48 275 0 gusting 1 11.7
2020-Apr-06 07:43 203 11.7
2020-Apr-06 07:38 203 11.1
2020-Apr-06 07:33 204 11.1
2020-Apr-06 07:28 101 10.0
2020-Apr-06 07:23 325 0 gusting 1 10.0
2020-Apr-06 07:18 235 0 gusting 2 9.4
2020-Apr-06 07:13 004 8.9
2020-Apr-06 07:08 004 8.9
2020-Apr-06 07:03 334 8.3
2020-Apr-06 06:58 336 8.3
2020-Apr-06 06:53 330 0 gusting 2 7.8
2020-Apr-06 06:48 332 0 gusting 4 7.8
2020-Apr-06 06:43 008 0 gusting 2 7.8
2020-Apr-06 06:38 320 0 gusting 2 7.8
2020-Apr-06 06:33 353 0 gusting 2 7.8
2020-Apr-06 06:28 332 0 gusting 2 7.8
2020-Apr-06 06:23 347 0 gusting 2 7.2
2020-Apr-06 06:18 353 0 gusting 2 7.2
2020-Apr-06 06:13 350 0 gusting 2 7.2
2020-Apr-06 06:08 333 0 gusting 2 7.2
2020-Apr-06 06:03 011 0 gusting 2 7.2
2020-Apr-06 05:58 338 7.2
2020-Apr-06 05:53 013 7.2
2020-Apr-06 05:48 004 0 gusting 2 7.2
2020-Apr-06 05:43 350 7.2
2020-Apr-06 05:38 244 7.2
2020-Apr-06 05:33 190 6.7
2020-Apr-06 05:28 190 6.7
2020-Apr-06 05:23 190 6.7
2020-Apr-06 05:18 190 7.2
2020-Apr-06 05:13 190 7.2
2020-Apr-06 05:08 191 7.2
2020-Apr-06 05:03 189 7.2
2020-Apr-06 04:58 193 6.7
2020-Apr-06 04:53 193 6.7
2020-Apr-06 04:48 193 7.2
2020-Apr-06 04:43 193 0 gusting 0 7.2
2020-Apr-06 04:38 205 7.2
2020-Apr-06 04:33 324 7.2
2020-Apr-06 04:28 333 7.2
2020-Apr-06 04:23 333 7.2
2020-Apr-06 04:18 314 7.8
2020-Apr-06 04:13 313 7.8
2020-Apr-06 04:08 347 7.8
2020-Apr-06 04:03 344 0 gusting 4 7.8
2020-Apr-06 03:58 012 0 gusting 2 7.8
2020-Apr-06 03:53 008 1 gusting 2 7.8
2020-Apr-06 03:48 010 1 gusting 5 7.8
2020-Apr-06 03:43 340 1 gusting 5 7.8
2020-Apr-06 03:38 355 0 gusting 2 7.8
2020-Apr-06 03:33 007 0 gusting 1 8.3
2020-Apr-06 03:28 022 0 gusting 2 8.3
2020-Apr-06 03:23 330 0 gusting 1 8.3
2020-Apr-06 03:18 321 7.8
2020-Apr-06 03:13 241 7.8
2020-Apr-06 03:08 239 8.3
2020-Apr-06 03:03 026 8.3
2020-Apr-06 02:58 344 0 gusting 2 8.3
2020-Apr-06 02:53 335 0 gusting 4 8.3
2020-Apr-06 02:48 023 0 gusting 2 8.3
2020-Apr-06 02:43 019 0 gusting 2 8.3
2020-Apr-06 02:38 004 0 gusting 2 8.3
2020-Apr-06 02:33 321 0 gusting 2 8.3
2020-Apr-06 02:28 352 0 gusting 2 8.3
2020-Apr-06 02:23 341 1 gusting 2 8.3
2020-Apr-06 02:18 358 8.3
2020-Apr-06 02:13 358 8.3
2020-Apr-06 02:08 358 8.3
2020-Apr-06 02:03 358 8.9
2020-Apr-06 01:58 358 8.9
2020-Apr-06 01:53 015 8.9
2020-Apr-06 01:48 014 0 gusting 2 8.9
2020-Apr-06 01:43 033 1 gusting 2 8.9
2020-Apr-06 01:38 345 8.9
2020-Apr-06 01:33 345 8.9
2020-Apr-06 01:28 349 0 gusting 2 8.9
2020-Apr-06 01:23 346 0 gusting 2 8.9
2020-Apr-06 01:18 333 0 gusting 4 8.3
2020-Apr-06 01:13 007 0 gusting 2 8.3
2020-Apr-06 01:08 347 8.3
2020-Apr-06 01:03 310 7.8
2020-Apr-06 00:58 310 7.8
2020-Apr-06 00:53 309 7.8
2020-Apr-06 00:48 310 7.8
2020-Apr-06 00:43 312 7.8
2020-Apr-06 00:38 312 7.8
2020-Apr-06 00:33 317 7.8
2020-Apr-06 00:28 317 7.8
2020-Apr-06 00:23 317 7.8
2020-Apr-06 00:18 317 7.8
2020-Apr-06 00:13 317 7.8
2020-Apr-06 00:08 317 7.8
2020-Apr-06 00:03 317 7.8
2020-Apr-05 23:58 326 7.8
2020-Apr-05 23:53 326 7.8
2020-Apr-05 23:48 326 7.8
2020-Apr-05 23:43 068 7.8
2020-Apr-05 23:38 068 7.8
2020-Apr-05 23:33 068 7.8
2020-Apr-05 23:28 068 7.8
2020-Apr-05 23:23 068 7.8
2020-Apr-05 23:18 068 7.8
2020-Apr-05 23:13 068 8.3
2020-Apr-05 23:08 068 8.3
2020-Apr-05 23:03 068 8.3
2020-Apr-05 22:58 068 8.3
2020-Apr-05 22:53 068 8.3
2020-Apr-05 22:48 068 8.3
2020-Apr-05 22:43 068 8.3
2020-Apr-05 22:38 068 8.3
2020-Apr-05 22:33 068 8.3
2020-Apr-05 22:28 068 8.3
2020-Apr-05 22:23 068 8.3
2020-Apr-05 22:18 068 8.3
2020-Apr-05 22:13 068 8.9
2020-Apr-05 22:08 068 8.9
2020-Apr-05 22:03 068 8.9
2020-Apr-05 21:58 203 8.9
2020-Apr-05 21:53 203 8.9
2020-Apr-05 21:48 203 8.9
2020-Apr-05 21:43 071 9.4
2020-Apr-05 21:38 070 9.4
2020-Apr-05 21:33 059 9.4
2020-Apr-05 21:28 056 10.0
2020-Apr-05 21:23 055 10.0
2020-Apr-05 21:18 055 10.0
2020-Apr-05 21:13 066 10.0
2020-Apr-05 21:08 227 10.0
2020-Apr-05 21:03 231 10.0
2020-Apr-05 20:58 231 10.6
2020-Apr-05 20:53 231 10.6
2020-Apr-05 20:48 231 11.1
2020-Apr-05 20:43 231 11.1
2020-Apr-05 20:38 231 11.1
2020-Apr-05 20:33 231 11.1
2020-Apr-05 20:28 231 11.1
2020-Apr-05 20:23 231 11.7
2020-Apr-05 20:18 231 11.7
2020-Apr-05 20:13 231 11.7
2020-Apr-05 20:08 231 12.2
2020-Apr-05 20:03 231 12.2
2020-Apr-05 19:58 231 12.2
2020-Apr-05 19:53 231 12.2
2020-Apr-05 19:48 231 12.2
2020-Apr-05 19:43 231 12.8
2020-Apr-05 19:38 231 12.8
2020-Apr-05 19:33 231 12.8
2020-Apr-05 19:28 231 12.8
2020-Apr-05 19:23 231 12.8
2020-Apr-05 19:18 231 13.3
2020-Apr-05 19:13 231 13.3
2020-Apr-05 19:08 231 13.3
2020-Apr-05 19:03 242 13.3
2020-Apr-05 18:58 242 13.3
2020-Apr-05 18:53 243 13.9
2020-Apr-05 18:48 243 13.9
2020-Apr-05 18:43 243 14.4
2020-Apr-05 18:38 243 14.4
2020-Apr-05 18:33 247 14.4
2020-Apr-05 18:28 222 15.0
2020-Apr-05 18:23 267 15.0
2020-Apr-05 18:18 194 15.0
2020-Apr-05 18:13 194 0 gusting 1 15.6
2020-Apr-05 18:08 124 15.6
2020-Apr-05 18:03 215 0 gusting 2 15.6
2020-Apr-05 17:58 194 0 gusting 2 15.6
2020-Apr-05 17:53 171 0 gusting 4 16.1
2020-Apr-05 17:48 139 0 gusting 2 16.1
2020-Apr-05 17:43 215 1 gusting 4 16.7
2020-Apr-05 17:33 198 1 gusting 4 17.2
2020-Apr-05 17:28 172 2 gusting 5 17.2
2020-Apr-05 17:23 183 2 gusting 6 17.8
2020-Apr-05 17:18 181 2 gusting 6 18.3
2020-Apr-05 17:03 195 0 gusting 5 18.3